Location: Wien
(48.2082°N, 16.3738°E)
Time: 12:19:39
(UTC+02:00)

Tiros 1 despin weight - Pass Details

Date: 13 September 2024
Orbit: 573 x 615 km, 48.2° (Epoch: 06 October)

Event Time Altitude Azimuth Distance (km) Brightness Sun altitude
Rises 05:27:40 0° 234° (SW) 2,873 - -10.8°
Reaches altitude 10° 05:30:01 10° 229° (SW) 1,974 - -10.4°
Exits shadow 05:30:18 12° 228° (SW) 1,867 ? -10.4°
Maximum altitude 05:34:23 48° 155° (SSE) 806 ? -9.8°
Drops below altitude 10° 05:38:47 10° 81° (E) 1,985 ? -9.1°
Sets 05:41:09 0° 76° (ENE) 2,890 ? -8.7°
